Glens Falls, NY

12:44 PM EST on December 05, 2019 (GMT -0500)
Bennett Memorial

Weather History for KGFL - October, 2019

Change the Weather History Date:

Wednesday, October 2, 2019

  Actual Average Record
Temperature  
Mean Temperature 57 °F 52 °F  
Max Temperature 69 °F 64 °F 82 °F (1968)
Min Temperature 45 °F 40 °F 28 °F (1997)
Degree Days  
Heating Degree Days 8 13  
Month to date heating degree days 9 26  
Since 1 July heating degree days 231 311  
Cooling Degree Days 0 0  
Month to date cooling degree days 0 0  
Year to date cooling degree days 416 351  
Growing Degree Days 8 (Base 50)    
Moisture  
Dew Point 54 °F    
Average Humidity 79    
Maximum Humidity 97    
Minimum Humidity 60    
Precipitation  
Precipitation 0.10 in 0.12 in 1.16 in (1952)
Month to date precipitation 0.19 0.24  
Year to date precipitation 31.04 29.43  
Sea Level Pressure  
Sea Level Pressure 29.89 in    
Wind  
Wind Speed 11 mph (NE)    
Max Wind Speed 21 mph    
Max Gust Speed 31 mph    
Visibility 9 miles    
Events Rain    
T = Trace of Precipitation, MM = Missing Value Source: NWS Daily Summary

Daily Weather History Graph

Daily Weather History Graph

Search for Another Location

Airport or City:

Astronomy

Oct. 02, 2019 Rise Set
Actual Time 6:52 AM EDT 6:34 PM EDT
Civil Twilight 6:24 AM EDT 7:02 PM EDT
Nautical Twilight 5:51 AM EDT 7:35 PM EDT
Astronomical Twilight 5:17 AM EDT 8:09 PM EDT
Moon 11:22 AM EDT (10/2) 9:18 PM EDT (10/2)
Length of Visible Light 12h 38m
Length of Day
11h 41m
Waxing Crescent, 20% of the Moon is Illuminated
Oct 2
Waxing Crescent
Oct 5
First Quarter
Oct 13
Full
Oct 21
Last Quarter
Oct 27
New

Hourly Weather History & Observations

Time (EDT) Temp. Dew Point Humidity Pressure Visibility Wind Dir Wind Speed Gust Speed Precip Events Conditions
12:53 AM 69.1 °F 66.0 °F 90% 29.74 in 10.0 mi South 5.8 mph - N/A   Mostly Cloudy
1:53 AM 69.1 °F 66.0 °F 90% 29.75 in 10.0 mi South 6.9 mph - N/A   Mostly Cloudy
2:53 AM 69.1 °F 64.9 °F 87% 29.74 in 10.0 mi SSW 6.9 mph - N/A   Partly Cloudy
3:53 AM 68.0 °F 64.9 °F 90% 29.76 in 10.0 mi South 4.6 mph - N/A   Mostly Cloudy
4:53 AM 66.9 °F 64.9 °F 93% 29.76 in 10.0 mi South 3.5 mph - N/A   Clear
5:53 AM 66.9 °F 64.9 °F 93% 29.78 in 10.0 mi North - - N/A   Mostly Cloudy
6:53 AM 66.0 °F 62.1 °F 87% 29.80 in 10.0 mi East 5.8 mph - N/A   Mostly Cloudy
7:53 AM 66.0 °F 61.0 °F 84% 29.81 in 10.0 mi Calm Calm - N/A   Mostly Cloudy
8:05 AM 66.0 °F 62.1 °F 87% 29.82 in 10.0 mi Calm Calm - N/A   Mostly Cloudy
8:53 AM 64.9 °F 61.0 °F 87% 29.82 in 10.0 mi ENE 6.9 mph - 0.00 in Rain Light Rain
9:53 AM 63.0 °F 59.0 °F 87% 29.81 in 10.0 mi NE 8.1 mph - 0.00 in   Overcast
10:33 AM 62.1 °F 60.1 °F 93% 29.80 in 8.0 mi ENE 12.7 mph - 0.01 in Rain Light Rain
10:53 AM 61.0 °F 59.0 °F 93% 29.81 in 10.0 mi NE 9.2 mph - 0.01 in   Overcast
11:12 AM 61.0 °F 57.9 °F 90% 29.83 in 10.0 mi NE 8.1 mph - 0.00 in Rain Light Rain
11:24 AM 60.1 °F 55.9 °F 86% 29.83 in 7.0 mi NE 13.8 mph 21.9 mph 0.00 in Rain Light Rain
11:33 AM 59.0 °F 55.9 °F 90% 29.84 in 3.0 mi NE 13.8 mph - 0.02 in Rain Rain
11:42 AM 57.9 °F 55.9 °F 93% 29.84 in 2.5 mi NE 13.8 mph - 0.04 in Rain Rain
11:49 AM 57.2 °F 55.4 °F 94% 29.84 in 4.0 mi NE 12.7 mph - 0.04 in Rain Light Rain
11:53 AM 57.9 °F 55.0 °F 90% 29.85 in 5.0 mi NE 12.7 mph - 0.04 in Rain Light Rain
12:25 PM 57.9 °F 55.0 °F 90% 29.85 in 10.0 mi NE 12.7 mph - 0.02 in Rain Light Rain
12:53 PM 57.9 °F 55.0 °F 90% 29.86 in 9.0 mi NE 11.5 mph - 0.02 in Rain Light Rain
1:04 PM 57.0 °F 55.0 °F 93% 29.85 in 6.0 mi ENE 12.7 mph - 0.00 in Rain Light Rain
1:25 PM 57.0 °F 54.0 °F 89% 29.86 in 10.0 mi ENE 10.4 mph - 0.00 in   Overcast
1:36 PM 55.9 °F 53.1 °F 90% 29.87 in 9.0 mi NE 16.1 mph - 0.00 in Rain Light Rain
1:53 PM 55.0 °F 52.0 °F 89% 29.88 in 9.0 mi NE 15.0 mph - 0.00 in Rain Light Rain
2:21 PM 54.0 °F 51.1 °F 90% 29.90 in 3.0 mi NE 15.0 mph - 0.02 in Rain Light Rain
2:53 PM 54.0 °F 51.1 °F 90% 29.90 in 10.0 mi NE 13.8 mph 20.7 mph 0.03 in   Overcast
3:09 PM 53.1 °F 50.0 °F 89% 29.91 in 10.0 mi NE 13.8 mph 23.0 mph N/A   Overcast
3:22 PM 53.1 °F 48.9 °F 86% 29.91 in 10.0 mi NE 11.5 mph - N/A   Overcast
3:53 PM 52.0 °F 48.0 °F 86% 29.93 in 10.0 mi NE 13.8 mph - N/A   Overcast
4:53 PM 51.1 °F 46.0 °F 83% 29.96 in 10.0 mi NNE 13.8 mph - N/A   Overcast
5:26 PM 51.1 °F 46.0 °F 83% 29.97 in 10.0 mi NNE 13.8 mph - N/A   Overcast
5:53 PM 51.1 °F 46.0 °F 83% 29.98 in 10.0 mi NNE 17.3 mph 26.5 mph N/A   Overcast
6:53 PM 50.0 °F 44.1 °F 80% 30.01 in 10.0 mi NNE 15.0 mph 21.9 mph N/A   Overcast
7:53 PM 50.0 °F 43.0 °F 77% 30.04 in 10.0 mi North 11.5 mph - N/A   Overcast
8:19 PM 50.0 °F 42.1 °F 74% 30.06 in 10.0 mi North 11.5 mph 19.6 mph N/A   Overcast
8:53 PM 50.0 °F 41.0 °F 71% 30.09 in 10.0 mi NNE 11.5 mph - N/A   Overcast
9:53 PM 50.0 °F 37.9 °F 63% 30.11 in 10.0 mi NNE 17.3 mph 21.9 mph N/A   Overcast
10:53 PM 48.0 °F 36.0 °F 63% 30.14 in 10.0 mi NNE 10.4 mph - N/A   Partly Cloudy
11:53 PM 46.9 °F 34.0 °F 61% 30.16 in 10.0 mi North 13.8 mph - N/A   Clear